South Lake Tahoe, CA

1:07 PM PST on December 12, 2019 (GMT -0800)
Lake Tahoe

Weather History for KTVL - October, 2019

Change the Weather History Date:

Monday, October 21, 2019

  Actual Average Record
Temperature  
Mean Temperature 46 °F 44 °F  
Max Temperature 64 °F 61 °F 76 °F (2003)
Min Temperature 28 °F 27 °F 13 °F (1979)
Degree Days  
Heating Degree Days 18 21  
Month to date heating degree days 448 381  
Since 1 July heating degree days 1059 1007  
Cooling Degree Days 0 0  
Month to date cooling degree days 0 0  
Year to date cooling degree days 20 31  
Moisture  
Dew Point 29 °F    
Average Humidity 62    
Maximum Humidity 92    
Minimum Humidity 28    
Precipitation  
Precipitation 0.00 in - 1.37 in (1961)
Month to date precipitation T  
Year to date precipitation 18.02  
Sea Level Pressure  
Sea Level Pressure 30.32 in    
Wind  
Wind Speed 2 mph ()    
Max Wind Speed 14 mph    
Max Gust Speed 19 mph    
Visibility 10.0 miles    
Events      
T = Trace of Precipitation, MM = Missing Value Source: Averaged Metar Reports

Daily Weather History Graph

Daily Weather History Graph

Search for Another Location

Airport or City:

Astronomy

Oct. 21, 2019 Rise Set
Actual Time 7:15 AM PDT 6:13 PM PDT
Civil Twilight 6:48 AM PDT 6:40 PM PDT
Nautical Twilight 6:17 AM PDT 7:11 PM PDT
Astronomical Twilight 5:46 AM PDT 7:42 PM PDT
Moon No Moon Rise 2:35 PM PDT (10/21)
Length of Visible Light 11h 52m
Length of Day
10h 57m
Waning Gibbous, 47% of the Moon is Illuminated
Oct 21
Waning Gibbous
Oct 27
New
Nov 4
First Quarter
Nov 12
Full
Nov 19
Last Quarter

Hourly Weather History & Observations

Time (PDT) Temp. Windchill Dew Point Humidity Pressure Visibility Wind Dir Wind Speed Gust Speed Precip Events Conditions
12:53 AM 33.1 °F - 28.0 °F 82% 30.23 in 10.0 mi Calm Calm - N/A   Clear
1:53 AM 30.9 °F - 28.0 °F 89% 30.25 in 10.0 mi Calm Calm - N/A   Clear
2:53 AM 30.0 °F 26.5 °F 28.0 °F 92% 30.25 in 10.0 mi South 3.5 mph - N/A   Clear
3:53 AM 30.0 °F - 28.0 °F 92% 30.24 in 10.0 mi Calm Calm - N/A   Clear
4:53 AM 28.9 °F - 26.1 °F 89% 30.26 in 10.0 mi Calm Calm - N/A   Clear
5:53 AM 28.0 °F - 26.1 °F 92% 30.30 in 10.0 mi Calm Calm - N/A   Clear
6:53 AM 28.0 °F 22.8 °F 26.1 °F 92% 30.32 in 10.0 mi South 4.6 mph - N/A   Clear
7:53 AM 28.9 °F 25.2 °F 26.1 °F 89% 30.35 in 10.0 mi South 3.5 mph - N/A   Clear
8:53 AM 37.0 °F 33.3 °F 33.1 °F 86% 30.36 in 10.0 mi SSW 4.6 mph - N/A   Clear
9:53 AM 48.9 °F - 36.0 °F 61% 30.34 in 10.0 mi South 3.5 mph - N/A   Clear
10:53 AM 57.9 °F - 30.9 °F 36% 30.31 in 10.0 mi Variable 4.6 mph - N/A   Clear
11:53 AM 61.0 °F - 32.0 °F 34% 30.31 in 10.0 mi Variable 4.6 mph - N/A   Clear
12:53 PM 63.0 °F - 32.0 °F 31% 30.29 in 10.0 mi NNE 8.1 mph - N/A   Clear
1:53 PM 64.0 °F - 30.9 °F 29% 30.29 in 10.0 mi NNE 11.5 mph 16.1 mph N/A   Clear
2:53 PM 64.0 °F - 32.0 °F 30% 30.29 in 10.0 mi Calm Calm - N/A   Clear
3:53 PM 64.0 °F - 32.0 °F 30% 30.30 in 10.0 mi Calm Calm - N/A   Clear
4:53 PM 61.0 °F - 30.0 °F 31% 30.32 in 10.0 mi North 5.8 mph - N/A   Clear
5:53 PM 55.9 °F - 25.0 °F 30% 30.35 in 10.0 mi Calm Calm - N/A   Clear
6:53 PM 48.9 °F - 27.0 °F 43% 30.38 in 10.0 mi Calm Calm - N/A   Clear
7:53 PM 44.1 °F - 27.0 °F 51% 30.42 in 10.0 mi Calm Calm - N/A   Clear
8:53 PM 41.0 °F - 27.0 °F 57% 30.42 in 10.0 mi Calm Calm - N/A   Clear
9:53 PM 36.0 °F 33.3 °F 26.1 °F 67% 30.40 in 10.0 mi South 3.5 mph - N/A   Clear
10:53 PM 33.1 °F - 25.0 °F 72% 30.40 in 10.0 mi Calm Calm - N/A   Clear
11:53 PM 32.0 °F 28.7 °F 24.1 °F 73% 30.39 in 10.0 mi South 3.5 mph - N/A   Clear